Location: Misciano
(43.5000°N, 11.9500°E)
Time: 04:37:30
(UTC+00:00)

CARTOSAT-1 - Pass Details

Date: 13 August 2020
Orbit: 616 x 619 km, 97.8° (Epoch: 19 September)

Event Time Altitude Azimuth Distance (km) Brightness Sun altitude
Exits shadow 20:06:54 29° 94° (E) 1,134 4.5 -17.7°
Maximum altitude 20:07:49 32° 69° (ENE) 1,062 4.5 -17.8°
Drops below altitude 10° 20:11:41 10° 6° (N) 1,996 6.6 -18.4°
Sets 20:14:02 0° 357° (N) 2,906 7.7 -18.7°
